Year,Month,Day,Hour,Minute,Value (Times are PST for temperature in C)
2011,04,08,00,02,5.50
2011,04,08,00,03,5.60
2011,04,08,00,04,5.50
2011,04,08,00,05,5.50
2011,04,08,00,06,5.50
2011,04,08,00,07,5.50
2011,04,08,00,08,5.50
2011,04,08,00,09,5.50
2011,04,08,00,10,5.50
2011,04,08,00,11,5.50
2011,04,08,00,13,5.50
2011,04,08,00,14,5.50
2011,04,08,00,15,5.40
2011,04,08,00,16,5.40
2011,04,08,00,17,5.40
2011,04,08,00,18,5.40
2011,04,08,00,19,5.40
2011,04,08,00,20,5.40
2011,04,08,00,21,5.40
2011,04,08,00,22,5.40
2011,04,08,00,23,5.40
2011,04,08,00,24,5.30
2011,04,08,00,25,5.30
2011,04,08,00,27,5.30
2011,04,08,00,28,5.30
2011,04,08,00,29,5.30
2011,04,08,00,30,5.30
2011,04,08,00,32,5.30
2011,04,08,00,33,5.30
2011,04,08,00,34,5.40
2011,04,08,00,35,5.40
2011,04,08,00,36,5.40
2011,04,08,00,37,5.40
2011,04,08,00,38,5.40
2011,04,08,00,39,5.40
2011,04,08,00,40,5.40
2011,04,08,00,41,5.40
2011,04,08,00,42,5.40
2011,04,08,00,43,5.40
2011,04,08,00,44,5.30
2011,04,08,00,45,5.40
2011,04,08,00,47,5.30
2011,04,08,00,48,5.30
2011,04,08,00,49,5.30
2011,04,08,00,51,5.30
2011,04,08,00,52,5.20
2011,04,08,00,53,5.20
2011,04,08,00,54,5.20
2011,04,08,00,55,5.20
2011,04,08,00,56,5.20
2011,04,08,00,57,5.20
2011,04,08,00,58,5.20
2011,04,08,00,59,5.20
2011,04,08,01,00,5.20
2011,04,08,01,01,5.20
2011,04,08,01,02,5.20
2011,04,08,01,03,5.20
2011,04,08,01,05,5.20
2011,04,08,01,06,5.20
2011,04,08,01,07,5.20
2011,04,08,01,08,5.20
2011,04,08,01,09,5.20
2011,04,08,01,10,5.20
2011,04,08,01,11,5.20
2011,04,08,01,12,5.20
2011,04,08,01,13,5.20
2011,04,08,01,14,5.20
2011,04,08,01,15,5.20
2011,04,08,01,16,5.20
2011,04,08,01,17,5.20
2011,04,08,01,18,5.20
2011,04,08,01,19,5.20
2011,04,08,01,20,5.20
2011,04,08,01,21,5.20
2011,04,08,01,22,5.20
2011,04,08,01,23,5.20
2011,04,08,01,24,5.20
2011,04,08,01,25,5.20
2011,04,08,01,26,5.20
2011,04,08,01,27,5.20
2011,04,08,01,28,5.20
2011,04,08,01,30,5.20
2011,04,08,01,31,5.20
2011,04,08,01,32,5.20
2011,04,08,01,33,5.20
2011,04,08,01,34,5.20
2011,04,08,01,35,5.20
2011,04,08,01,36,5.20
2011,04,08,01,37,5.10
2011,04,08,01,38,5.10
2011,04,08,01,39,5.10
2011,04,08,01,40,5.10
2011,04,08,01,41,4.90
2011,04,08,01,42,4.90
2011,04,08,01,43,4.90
2011,04,08,01,44,4.80
2011,04,08,01,45,4.60
2011,04,08,01,46,4.60
2011,04,08,01,48,4.60
2011,04,08,01,49,4.20
2011,04,08,01,50,4.20
2011,04,08,01,51,4.10
2011,04,08,01,52,4.10
2011,04,08,01,53,4.10
2011,04,08,01,54,4.00
2011,04,08,01,55,4.00
2011,04,08,01,57,4.00
2011,04,08,01,58,4.00
2011,04,08,01,59,4.10
2011,04,08,02,00,4.10
2011,04,08,02,01,4.10
2011,04,08,02,02,4.10
2011,04,08,02,03,4.00
2011,04,08,02,04,3.90
2011,04,08,02,05,4.00
2011,04,08,02,06,4.00
2011,04,08,02,07,4.00
2011,04,08,02,08,3.90
2011,04,08,02,09,3.90
2011,04,08,02,11,3.90
2011,04,08,02,12,3.90
2011,04,08,02,13,3.80
2011,04,08,02,14,3.80
2011,04,08,02,15,3.80
2011,04,08,02,16,3.70
2011,04,08,02,17,3.70
2011,04,08,02,18,3.70
2011,04,08,02,19,3.70
2011,04,08,02,21,3.70
2011,04,08,02,22,3.70
2011,04,08,02,23,3.60
2011,04,08,02,24,3.60
2011,04,08,02,25,3.60
2011,04,08,02,26,3.60
2011,04,08,02,27,3.60
2011,04,08,02,28,3.60
2011,04,08,02,29,3.50
2011,04,08,02,30,3.40
2011,04,08,02,31,3.40
2011,04,08,02,32,3.40
2011,04,08,02,33,3.30
2011,04,08,02,35,3.30
2011,04,08,02,36,3.20
2011,04,08,02,37,3.10
2011,04,08,02,39,2.90
2011,04,08,02,40,2.90
2011,04,08,02,41,2.80
2011,04,08,02,42,2.80
2011,04,08,02,43,2.80
2011,04,08,02,45,2.80
2011,04,08,02,46,2.80
2011,04,08,02,47,2.90
2011,04,08,02,49,2.90
2011,04,08,02,50,3.00
2011,04,08,02,51,3.10
2011,04,08,02,52,3.10
2011,04,08,02,54,3.10
2011,04,08,02,55,3.20
2011,04,08,02,56,3.20
2011,04,08,02,57,3.30
2011,04,08,02,59,3.30
2011,04,08,03,00,3.40
2011,04,08,03,01,3.40
2011,04,08,03,02,3.40
2011,04,08,03,03,3.50
2011,04,08,03,05,3.60
2011,04,08,03,06,3.60
2011,04,08,03,07,3.60
2011,04,08,03,09,3.60
2011,04,08,03,10,3.60
2011,04,08,03,11,3.60
2011,04,08,03,12,3.60
2011,04,08,03,14,3.60
2011,04,08,03,15,3.50
2011,04,08,03,17,3.40
2011,04,08,03,18,3.40
2011,04,08,03,19,3.40
2011,04,08,03,20,3.40
2011,04,08,03,21,3.50
2011,04,08,03,23,3.60
2011,04,08,03,24,3.60
2011,04,08,03,25,3.60
2011,04,08,03,26,3.60
2011,04,08,03,28,3.60
2011,04,08,03,29,3.60
2011,04,08,03,30,3.60
2011,04,08,03,31,3.60
2011,04,08,03,32,3.60
2011,04,08,03,33,3.60
2011,04,08,03,34,3.40
2011,04,08,03,35,3.30
2011,04,08,03,37,3.20
2011,04,08,03,38,3.10
2011,04,08,03,39,2.80
2011,04,08,03,40,2.80
2011,04,08,03,42,2.70
2011,04,08,03,43,2.60
2011,04,08,03,44,2.50
2011,04,08,03,45,2.40
2011,04,08,03,46,2.40
2011,04,08,03,48,2.30
2011,04,08,03,49,2.30
2011,04,08,03,50,2.20
2011,04,08,03,51,2.20
2011,04,08,03,52,2.20
2011,04,08,03,53,2.20
2011,04,08,03,54,2.20
2011,04,08,03,55,2.20
2011,04,08,03,56,2.20
2011,04,08,03,57,2.20
2011,04,08,03,59,2.20
2011,04,08,04,00,2.20
2011,04,08,04,01,2.20
2011,04,08,04,02,2.20
2011,04,08,04,03,2.20
2011,04,08,04,05,2.20
2011,04,08,04,06,2.20
2011,04,08,04,07,2.20
2011,04,08,04,08,2.20
2011,04,08,04,10,2.20
2011,04,08,04,11,2.10
2011,04,08,04,12,2.00
2011,04,08,04,13,2.00
2011,04,08,04,14,2.00
2011,04,08,04,16,1.90
2011,04,08,04,17,1.90
2011,04,08,04,18,1.90
2011,04,08,04,19,1.90
2011,04,08,04,20,1.90
2011,04,08,04,21,1.80
2011,04,08,04,22,1.80
2011,04,08,04,23,1.80
2011,04,08,04,24,1.80
2011,04,08,04,26,1.80
2011,04,08,04,27,1.80
2011,04,08,04,28,1.80
2011,04,08,04,29,1.80
2011,04,08,04,30,1.80
2011,04,08,04,31,1.80
2011,04,08,04,32,1.80
2011,04,08,04,33,1.80
2011,04,08,04,34,1.90
2011,04,08,04,36,1.90
2011,04,08,04,37,1.90
2011,04,08,04,38,1.90
2011,04,08,04,39,1.90
2011,04,08,04,41,2.00
2011,04,08,04,42,2.00
2011,04,08,04,43,2.10
2011,04,08,04,44,2.10
2011,04,08,04,46,2.10
2011,04,08,04,47,2.20
2011,04,08,04,48,2.20
2011,04,08,04,50,2.20
2011,04,08,04,51,2.30
2011,04,08,04,52,2.30
2011,04,08,04,53,2.30
2011,04,08,04,54,2.40
2011,04,08,04,56,2.40
2011,04,08,04,57,2.60
2011,04,08,04,58,2.60
2011,04,08,04,59,2.60
2011,04,08,05,00,2.70
2011,04,08,05,01,2.70
2011,04,08,05,02,2.70
2011,04,08,05,03,2.80
2011,04,08,05,04,2.80
2011,04,08,05,06,2.80
2011,04,08,05,07,2.90
2011,04,08,05,08,2.90
2011,04,08,05,09,2.90
2011,04,08,05,10,2.90
2011,04,08,05,12,2.90
2011,04,08,05,13,2.80
2011,04,08,05,14,2.80
2011,04,08,05,15,2.80
2011,04,08,05,17,2.80
2011,04,08,05,18,2.80
2011,04,08,05,19,2.80
2011,04,08,05,20,2.80
2011,04,08,05,21,2.70
2011,04,08,05,23,2.70
2011,04,08,05,24,2.70
2011,04,08,05,25,2.70
2011,04,08,05,26,2.70
2011,04,08,05,27,2.70
2011,04,08,05,28,2.60
2011,04,08,05,29,2.60
2011,04,08,05,30,2.60
2011,04,08,05,31,2.60
2011,04,08,05,33,2.60
2011,04,08,05,34,2.60
2011,04,08,05,35,2.60
2011,04,08,05,37,2.60
2011,04,08,05,38,2.60
2011,04,08,05,39,2.60
2011,04,08,05,40,2.60
2011,04,08,05,41,2.70
2011,04,08,05,43,2.70
2011,04,08,05,44,2.70
2011,04,08,05,45,2.80
2011,04,08,05,47,2.80
2011,04,08,05,48,2.80
2011,04,08,05,49,2.80
2011,04,08,05,50,2.90
2011,04,08,05,51,2.90
2011,04,08,05,53,2.90
2011,04,08,05,54,3.00
2011,04,08,05,55,3.10
2011,04,08,05,56,3.10
2011,04,08,05,58,3.10
2011,04,08,05,59,3.10
2011,04,08,06,00,3.10
2011,04,08,06,01,3.10
2011,04,08,06,03,3.10
2011,04,08,06,04,2.80
2011,04,08,06,05,2.70
2011,04,08,06,06,2.60
2011,04,08,06,08,2.50
2011,04,08,06,09,2.40
2011,04,08,06,10,2.40
2011,04,08,06,11,2.40
2011,04,08,06,13,2.40
2011,04,08,06,14,2.40
2011,04,08,06,15,2.40
2011,04,08,06,16,2.50
2011,04,08,06,17,2.60
2011,04,08,06,18,2.70
2011,04,08,06,19,2.70
2011,04,08,06,20,2.80
2011,04,08,06,22,2.80
2011,04,08,06,23,2.90
2011,04,08,06,24,3.00
2011,04,08,06,25,3.10
2011,04,08,06,27,3.10
2011,04,08,06,28,3.00
2011,04,08,06,29,2.90
2011,04,08,06,30,2.80
2011,04,08,06,31,2.80
2011,04,08,06,33,2.80
2011,04,08,06,34,2.80
2011,04,08,06,35,2.80
2011,04,08,06,36,2.80
2011,04,08,06,37,2.80
2011,04,08,06,38,2.90
2011,04,08,06,39,2.90
2011,04,08,06,40,2.90
2011,04,08,06,41,3.00
2011,04,08,06,42,3.00
2011,04,08,06,43,3.10
2011,04,08,06,44,3.10
2011,04,08,06,45,3.20
2011,04,08,06,47,3.20
2011,04,08,06,48,3.30
2011,04,08,06,49,3.30
2011,04,08,06,50,3.30
2011,04,08,06,52,3.40
2011,04,08,06,53,3.40
2011,04,08,06,54,3.40
2011,04,08,06,56,3.40
2011,04,08,06,57,3.50
2011,04,08,06,58,3.50
2011,04,08,06,59,3.50
2011,04,08,07,00,3.60
2011,04,08,07,02,3.60
2011,04,08,07,03,3.60
2011,04,08,07,04,3.60
2011,04,08,07,05,3.60
2011,04,08,07,07,3.60
2011,04,08,07,08,3.70
2011,04,08,07,09,3.70
2011,04,08,07,11,3.70
2011,04,08,07,12,3.80
2011,04,08,07,13,3.80
2011,04,08,07,14,3.90
2011,04,08,07,15,3.90
2011,04,08,07,16,3.90
2011,04,08,07,17,3.90
2011,04,08,07,18,3.90
2011,04,08,07,19,3.90
2011,04,08,07,20,4.00
2011,04,08,07,21,4.00
2011,04,08,07,22,4.10
2011,04,08,07,24,4.10
2011,04,08,07,25,4.20
2011,04,08,07,26,4.30
2011,04,08,07,27,4.30
2011,04,08,07,29,4.30
2011,04,08,07,30,4.40
2011,04,08,07,31,4.40
2011,04,08,07,32,4.40
2011,04,08,07,33,4.40
2011,04,08,07,34,4.40
2011,04,08,07,35,4.40
2011,04,08,07,36,4.30
2011,04,08,07,37,4.30
2011,04,08,07,38,4.30
2011,04,08,07,40,4.30
2011,04,08,07,41,4.40
2011,04,08,07,42,4.40
2011,04,08,07,43,4.50
2011,04,08,07,44,4.60
2011,04,08,07,45,4.60
2011,04,08,07,46,4.70
2011,04,08,07,47,4.80
2011,04,08,07,48,4.80
2011,04,08,07,49,4.90
2011,04,08,07,50,4.90
2011,04,08,07,51,5.00
2011,04,08,07,52,5.10
2011,04,08,07,53,5.10
2011,04,08,07,54,5.20
2011,04,08,07,56,5.20
2011,04,08,07,57,5.30
2011,04,08,07,58,5.30
2011,04,08,07,59,5.30
2011,04,08,08,00,5.30
2011,04,08,08,01,5.20
2011,04,08,08,02,5.20
2011,04,08,08,03,5.10
2011,04,08,08,04,5.10
2011,04,08,08,05,4.90
2011,04,08,08,07,4.90
2011,04,08,08,08,4.80
2011,04,08,08,09,4.80
2011,04,08,08,10,4.80
2011,04,08,08,12,4.80
2011,04,08,08,13,4.90
2011,04,08,08,14,5.00
2011,04,08,08,15,5.10
2011,04,08,08,16,5.10
2011,04,08,08,17,5.20
2011,04,08,08,18,5.30
2011,04,08,08,19,5.30
2011,04,08,08,20,5.40
2011,04,08,08,22,5.60
2011,04,08,08,23,5.80
2011,04,08,08,24,5.90
2011,04,08,08,26,6.10
2011,04,08,08,27,6.30
2011,04,08,08,28,6.40
2011,04,08,08,29,6.60
2011,04,08,08,31,6.70
2011,04,08,08,32,6.80
2011,04,08,08,33,6.80
2011,04,08,08,34,6.80
2011,04,08,08,36,6.80
2011,04,08,08,37,6.90
2011,04,08,08,38,6.90
2011,04,08,08,39,6.90
2011,04,08,08,41,6.90
2011,04,08,08,42,6.90
2011,04,08,08,43,6.90
2011,04,08,08,44,6.90
2011,04,08,08,45,6.90
2011,04,08,08,46,6.90
2011,04,08,08,47,6.90
2011,04,08,08,49,6.90
2011,04,08,08,50,6.90
2011,04,08,08,51,7.00
2011,04,08,08,52,7.10
2011,04,08,08,54,7.20
2011,04,08,08,55,7.30
2011,04,08,08,56,7.40
2011,04,08,08,58,7.50
2011,04,08,08,59,7.60
2011,04,08,09,00,7.60
2011,04,08,09,02,7.60
2011,04,08,09,03,7.60
2011,04,08,09,04,7.60
2011,04,08,09,05,7.60
2011,04,08,09,07,7.70
2011,04,08,09,08,7.80
2011,04,08,09,09,7.80
2011,04,08,09,10,7.80
2011,04,08,09,12,7.90
2011,04,08,09,13,7.90
2011,04,08,09,14,8.00
2011,04,08,09,15,8.10
2011,04,08,09,17,8.20
2011,04,08,09,18,8.30
2011,04,08,09,19,8.30
2011,04,08,09,20,8.30
2011,04,08,09,22,8.30
2011,04,08,09,23,8.30
2011,04,08,09,24,8.30
2011,04,08,09,25,8.20
2011,04,08,09,27,8.20
2011,04,08,09,28,8.20
2011,04,08,09,29,8.20
2011,04,08,09,30,8.20
2011,04,08,09,31,8.20
2011,04,08,09,32,8.20
2011,04,08,09,33,8.30
2011,04,08,09,34,8.30
2011,04,08,09,35,8.40
2011,04,08,09,36,8.40
2011,04,08,09,37,8.40
2011,04,08,09,38,8.60
2011,04,08,09,39,8.70
2011,04,08,09,40,8.70
2011,04,08,09,42,8.80
2011,04,08,09,43,8.90
2011,04,08,09,44,8.80
2011,04,08,09,45,8.70
2011,04,08,09,47,8.70
2011,04,08,09,48,8.60
2011,04,08,09,49,8.50
2011,04,08,09,50,8.50
2011,04,08,09,51,8.40
2011,04,08,09,53,8.40
2011,04,08,09,54,8.50
2011,04,08,09,55,8.50
2011,04,08,09,56,8.50
2011,04,08,09,57,8.60
2011,04,08,09,58,8.60
2011,04,08,09,59,8.60
2011,04,08,10,01,8.70
2011,04,08,10,02,8.70
2011,04,08,10,03,8.70
2011,04,08,10,04,8.70
2011,04,08,10,05,8.50
2011,04,08,10,07,8.40
2011,04,08,10,08,8.30
2011,04,08,10,09,8.30
2011,04,08,10,10,8.20
2011,04,08,10,11,8.20
2011,04,08,10,12,8.20
2011,04,08,10,13,8.20
2011,04,08,10,14,8.20
2011,04,08,10,15,8.20
2011,04,08,10,17,8.30
2011,04,08,10,18,8.40
2011,04,08,10,19,8.40
2011,04,08,10,20,8.40
2011,04,08,10,21,8.40
2011,04,08,10,23,8.50
2011,04,08,10,24,8.60
2011,04,08,10,25,8.70
2011,04,08,10,26,8.80
2011,04,08,10,27,8.80
2011,04,08,10,28,8.90
2011,04,08,10,29,9.10
2011,04,08,10,30,9.20
2011,04,08,10,31,9.20
2011,04,08,10,33,9.30
2011,04,08,10,34,9.40
2011,04,08,10,35,9.40
2011,04,08,10,37,9.40
2011,04,08,10,38,9.40
2011,04,08,10,39,9.40
2011,04,08,10,40,9.40
2011,04,08,10,41,9.40
2011,04,08,10,42,9.30
2011,04,08,10,43,9.30
2011,04,08,10,45,9.30
2011,04,08,10,46,9.30
2011,04,08,10,47,9.40
2011,04,08,10,48,9.50
2011,04,08,10,50,9.50
2011,04,08,10,51,9.40
2011,04,08,10,52,9.30
2011,04,08,10,53,9.30
2011,04,08,10,54,9.20
2011,04,08,10,55,9.20
2011,04,08,10,56,9.20
2011,04,08,10,57,9.30
2011,04,08,10,58,9.30
2011,04,08,10,59,9.20
2011,04,08,11,00,9.20
2011,04,08,11,01,9.10
2011,04,08,11,02,9.10
2011,04,08,11,03,9.10
2011,04,08,11,04,9.20
2011,04,08,11,05,9.20
2011,04,08,11,06,9.20
2011,04,08,11,07,9.20
2011,04,08,11,08,9.30
2011,04,08,11,09,9.30
2011,04,08,11,10,9.30
2011,04,08,11,11,9.30
2011,04,08,11,12,9.30
2011,04,08,11,13,9.30
2011,04,08,11,14,9.30
2011,04,08,11,15,9.30
2011,04,08,11,16,9.30
2011,04,08,11,17,9.30
2011,04,08,11,18,9.40
2011,04,08,11,19,9.50
2011,04,08,11,20,9.50
2011,04,08,11,22,9.40
2011,04,08,11,23,9.30
2011,04,08,11,24,9.30
2011,04,08,11,25,9.30
2011,04,08,11,27,9.40
2011,04,08,11,28,9.50
2011,04,08,11,29,9.60
2011,04,08,11,30,9.50
2011,04,08,11,31,9.40
2011,04,08,11,32,9.40
2011,04,08,11,33,9.40
2011,04,08,11,34,9.50
2011,04,08,11,35,9.50
2011,04,08,11,37,9.50
2011,04,08,11,38,9.50
2011,04,08,11,39,9.60
2011,04,08,11,40,9.60
2011,04,08,11,41,9.70
2011,04,08,11,42,9.70
2011,04,08,11,43,9.60
2011,04,08,11,44,9.60
2011,04,08,11,45,9.70
2011,04,08,11,46,9.70
2011,04,08,11,47,9.70
2011,04,08,11,48,9.70
2011,04,08,11,49,9.80
2011,04,08,11,50,9.90
2011,04,08,11,52,9.90
2011,04,08,11,53,9.90
2011,04,08,11,54,9.80
2011,04,08,11,55,9.80
2011,04,08,11,57,9.80
2011,04,08,11,58,9.90
2011,04,08,11,59,10.00
2011,04,08,12,01,10.00
2011,04,08,12,02,10.00
2011,04,08,12,03,10.00
2011,04,08,12,04,10.00
2011,04,08,12,05,10.00
2011,04,08,12,06,10.10
2011,04,08,12,07,10.10
2011,04,08,12,08,10.10
2011,04,08,12,09,10.00
2011,04,08,12,10,10.00
2011,04,08,12,12,10.00
2011,04,08,12,13,10.10
2011,04,08,12,14,10.10
2011,04,08,12,16,10.20
2011,04,08,12,17,10.20
2011,04,08,12,18,10.20
2011,04,08,12,19,10.20
2011,04,08,12,21,10.20
2011,04,08,12,22,10.20
2011,04,08,12,23,10.20
2011,04,08,12,25,10.20
2011,04,08,12,26,10.30
2011,04,08,12,27,10.30
2011,04,08,12,28,10.40
2011,04,08,12,30,10.40
2011,04,08,12,31,10.40
2011,04,08,12,32,10.60
2011,04,08,12,33,10.60
2011,04,08,12,34,10.60
2011,04,08,12,35,10.60
2011,04,08,12,36,10.70
2011,04,08,12,37,10.70
2011,04,08,12,39,10.70
2011,04,08,12,40,10.40
2011,04,08,12,41,10.30
2011,04,08,12,42,10.20
2011,04,08,12,44,10.20
2011,04,08,12,45,10.10
2011,04,08,12,46,10.10
2011,04,08,12,47,10.00
2011,04,08,12,48,10.00
2011,04,08,12,49,10.00
2011,04,08,12,50,9.90
2011,04,08,12,51,9.90
2011,04,08,12,52,9.90
2011,04,08,12,53,9.90
2011,04,08,12,54,10.00
2011,04,08,12,55,10.10
2011,04,08,12,56,10.20
2011,04,08,12,57,10.20
2011,04,08,12,58,10.30
2011,04,08,12,59,10.20
2011,04,08,13,00,10.20
2011,04,08,13,01,10.20
2011,04,08,13,02,10.30
2011,04,08,13,03,10.40
2011,04,08,13,04,10.40
2011,04,08,13,05,10.50
2011,04,08,13,07,10.60
2011,04,08,13,08,10.70
2011,04,08,13,09,10.80
2011,04,08,13,11,10.90
2011,04,08,13,12,11.10
2011,04,08,13,13,11.20
2011,04,08,13,14,11.30
2011,04,08,13,15,11.30
2011,04,08,13,16,11.20
2011,04,08,13,17,11.10
2011,04,08,13,18,10.80
2011,04,08,13,20,10.70
2011,04,08,13,21,10.70
2011,04,08,13,22,10.70
2011,04,08,13,23,10.80
2011,04,08,13,25,10.90
2011,04,08,13,26,10.90
2011,04,08,13,27,10.90
2011,04,08,13,29,10.90
2011,04,08,13,30,11.10
2011,04,08,13,31,11.20
2011,04,08,13,32,11.30
2011,04,08,13,34,11.40
2011,04,08,13,35,11.60
2011,04,08,13,36,11.70
2011,04,08,13,37,11.70
2011,04,08,13,39,11.70
2011,04,08,13,40,11.70
2011,04,08,13,41,11.70
2011,04,08,13,42,11.70
2011,04,08,13,43,11.60
2011,04,08,13,44,11.50
2011,04,08,13,45,11.40
2011,04,08,13,46,11.30
2011,04,08,13,47,11.30
2011,04,08,13,48,11.20
2011,04,08,13,49,11.20
2011,04,08,13,50,11.20
2011,04,08,13,52,11.10
2011,04,08,13,53,11.10
2011,04,08,13,54,11.20
2011,04,08,13,56,11.30
2011,04,08,13,57,11.40
2011,04,08,13,58,11.60
2011,04,08,13,59,11.70
2011,04,08,14,00,11.80
2011,04,08,14,02,11.90
2011,04,08,14,03,12.10
2011,04,08,14,04,12.30
2011,04,08,14,05,12.40
2011,04,08,14,06,12.40
2011,04,08,14,07,12.40
2011,04,08,14,08,12.30
2011,04,08,14,09,12.20
2011,04,08,14,10,12.20
2011,04,08,14,12,12.20
2011,04,08,14,13,12.10
2011,04,08,14,14,12.10
2011,04,08,14,15,12.10
2011,04,08,14,16,12.10
2011,04,08,14,17,12.20
2011,04,08,14,18,12.20
2011,04,08,14,19,12.30
2011,04,08,14,20,12.30
2011,04,08,14,21,12.30
2011,04,08,14,22,12.30
2011,04,08,14,23,12.30
2011,04,08,14,24,12.30
2011,04,08,14,25,12.30
2011,04,08,14,26,12.40
2011,04,08,14,27,12.40
2011,04,08,14,28,12.40
2011,04,08,14,29,12.40
2011,04,08,14,30,12.40
2011,04,08,14,31,12.40
2011,04,08,14,32,12.40
2011,04,08,14,33,12.40
2011,04,08,14,35,12.30
2011,04,08,14,36,12.20
2011,04,08,14,37,12.10
2011,04,08,14,38,12.10
2011,04,08,14,40,12.20
2011,04,08,14,41,12.20
2011,04,08,14,42,12.20
2011,04,08,14,44,12.20
2011,04,08,14,45,12.10
2011,04,08,14,46,12.10
2011,04,08,14,47,12.10
2011,04,08,14,49,12.20
2011,04,08,14,50,12.30
2011,04,08,14,51,12.40
2011,04,08,14,52,12.50
2011,04,08,14,54,12.60
2011,04,08,14,55,12.70
2011,04,08,14,56,12.70
2011,04,08,14,57,12.80
2011,04,08,14,58,12.80
2011,04,08,14,59,12.80
2011,04,08,15,00,12.80
2011,04,08,15,01,12.80
2011,04,08,15,02,12.90
2011,04,08,15,03,13.00
2011,04,08,15,05,13.00
2011,04,08,15,06,12.90
2011,04,08,15,07,12.80
2011,04,08,15,08,12.80
2011,04,08,15,10,12.80
2011,04,08,15,11,12.70
2011,04,08,15,12,12.80
2011,04,08,15,13,12.80
2011,04,08,15,14,12.80
2011,04,08,15,16,12.90
2011,04,08,15,17,12.90
2011,04,08,15,18,12.90
2011,04,08,15,20,12.90
2011,04,08,15,21,13.10
2011,04,08,15,22,13.20
2011,04,08,15,23,13.30
2011,04,08,15,24,13.30
2011,04,08,15,25,13.20
2011,04,08,15,26,13.00
2011,04,08,15,27,12.90
2011,04,08,15,28,12.90
2011,04,08,15,30,12.80
2011,04,08,15,31,12.90
2011,04,08,15,32,12.80
2011,04,08,15,34,12.80
2011,04,08,15,35,12.80
2011,04,08,15,36,12.80
2011,04,08,15,37,12.90
2011,04,08,15,39,12.90
2011,04,08,15,40,12.90
2011,04,08,15,41,12.90
2011,04,08,15,42,12.90
2011,04,08,15,43,12.90
2011,04,08,15,44,12.90
2011,04,08,15,45,12.80
2011,04,08,15,46,12.80
2011,04,08,15,47,12.70
2011,04,08,15,48,12.70
2011,04,08,15,49,12.70
2011,04,08,15,50,12.70
2011,04,08,15,51,12.60
2011,04,08,15,52,12.60
2011,04,08,15,53,12.60
2011,04,08,15,54,12.60
2011,04,08,15,55,12.60
2011,04,08,15,56,12.60
2011,04,08,15,57,12.60
2011,04,08,15,58,12.60
2011,04,08,15,59,12.70
2011,04,08,16,00,12.70
2011,04,08,16,01,12.70
2011,04,08,16,02,12.70
2011,04,08,16,04,12.80
2011,04,08,16,05,12.80
2011,04,08,16,06,12.90
2011,04,08,16,07,12.90
2011,04,08,16,08,13.00
2011,04,08,16,09,12.90
2011,04,08,16,10,12.90
2011,04,08,16,11,12.90
2011,04,08,16,12,12.90
2011,04,08,16,13,12.90
2011,04,08,16,14,12.90
2011,04,08,16,15,12.80
2011,04,08,16,16,12.80
2011,04,08,16,17,12.80
2011,04,08,16,18,12.80
2011,04,08,16,19,12.80
2011,04,08,16,20,12.90
2011,04,08,16,21,12.90
2011,04,08,16,22,12.90
2011,04,08,16,23,12.90
2011,04,08,16,25,12.90
2011,04,08,16,26,13.00
2011,04,08,16,27,12.90
2011,04,08,16,28,12.90
2011,04,08,16,30,12.90
2011,04,08,16,31,12.90
2011,04,08,16,32,13.00
2011,04,08,16,33,13.10
2011,04,08,16,35,13.10
2011,04,08,16,36,13.20
2011,04,08,16,37,13.20
2011,04,08,16,38,13.20
2011,04,08,16,40,13.20
2011,04,08,16,41,13.20
2011,04,08,16,42,13.10
2011,04,08,16,43,13.10
2011,04,08,16,44,13.00
2011,04,08,16,45,12.80
2011,04,08,16,46,12.80
2011,04,08,16,47,12.80
2011,04,08,16,48,12.90
2011,04,08,16,49,12.90
2011,04,08,16,50,12.90
2011,04,08,16,51,13.00
2011,04,08,16,53,13.10
2011,04,08,16,54,13.10
2011,04,08,16,55,13.10
2011,04,08,16,56,13.20
2011,04,08,16,57,13.20
2011,04,08,16,58,13.20
2011,04,08,16,59,13.30
2011,04,08,17,00,13.30
2011,04,08,17,02,13.40
2011,04,08,17,03,13.40
2011,04,08,17,04,13.40
2011,04,08,17,05,13.30
2011,04,08,17,06,13.20
2011,04,08,17,08,13.10
2011,04,08,17,09,12.80
2011,04,08,17,10,12.70
2011,04,08,17,11,12.50
2011,04,08,17,12,12.40
2011,04,08,17,13,12.30
2011,04,08,17,14,12.20
2011,04,08,17,15,12.10
2011,04,08,17,16,11.90
2011,04,08,17,18,11.70
2011,04,08,17,19,11.60
2011,04,08,17,20,11.60
2011,04,08,17,21,11.60
2011,04,08,17,22,11.60
2011,04,08,17,23,11.60
2011,04,08,17,24,11.60
2011,04,08,17,25,11.70
2011,04,08,17,27,11.70
2011,04,08,17,28,11.60
2011,04,08,17,29,11.30
2011,04,08,17,30,11.30
2011,04,08,17,32,11.20
2011,04,08,17,33,11.00
2011,04,08,17,34,11.00
2011,04,08,17,35,11.10
2011,04,08,17,37,11.00
2011,04,08,17,38,11.00
2011,04,08,17,39,11.00
2011,04,08,17,40,10.90
2011,04,08,17,42,10.80
2011,04,08,17,43,10.70
2011,04,08,17,44,10.70
2011,04,08,17,45,10.60
2011,04,08,17,47,10.70
2011,04,08,17,48,10.70
2011,04,08,17,49,10.60
2011,04,08,17,51,10.60
2011,04,08,17,52,10.60
2011,04,08,17,53,10.60
2011,04,08,17,54,10.60
2011,04,08,17,56,10.60
2011,04,08,17,57,10.50
2011,04,08,17,58,10.40
2011,04,08,17,59,10.40
2011,04,08,18,01,10.40
2011,04,08,18,02,10.40
2011,04,08,18,03,10.30
2011,04,08,18,04,10.40
2011,04,08,18,06,10.40
2011,04,08,18,07,10.40
2011,04,08,18,08,10.30
2011,04,08,18,10,10.30
2011,04,08,18,11,10.30
2011,04,08,18,12,10.40
2011,04,08,18,13,10.40
2011,04,08,18,15,10.50
2011,04,08,18,16,10.60
2011,04,08,18,17,10.50
2011,04,08,18,18,10.40
2011,04,08,18,20,10.40
2011,04,08,18,21,10.40
2011,04,08,18,22,10.40
2011,04,08,18,23,10.40
2011,04,08,18,25,10.50
2011,04,08,18,26,10.50
2011,04,08,18,27,10.50
2011,04,08,18,28,10.50
2011,04,08,18,29,10.50
2011,04,08,18,31,10.50
2011,04,08,18,32,10.50
2011,04,08,18,33,10.50
2011,04,08,18,34,10.50
2011,04,08,18,35,10.50
2011,04,08,18,36,10.50
2011,04,08,18,37,10.50
2011,04,08,18,38,10.50
2011,04,08,18,39,10.50
2011,04,08,18,41,10.50
2011,04,08,18,42,10.50
2011,04,08,18,43,10.50
2011,04,08,18,44,10.50
2011,04,08,18,45,10.50
2011,04,08,18,46,10.50
2011,04,08,18,47,10.50
2011,04,08,18,48,10.60
2011,04,08,18,49,10.60
2011,04,08,18,50,10.60
2011,04,08,18,51,10.60
2011,04,08,18,52,10.60
2011,04,08,18,53,10.60
2011,04,08,18,54,10.60
2011,04,08,18,55,10.60
2011,04,08,18,56,10.60
2011,04,08,18,57,10.60
2011,04,08,18,58,10.60
2011,04,08,18,59,10.60
2011,04,08,19,00,10.60
2011,04,08,19,02,10.60
2011,04,08,19,03,10.60
2011,04,08,19,04,10.60
2011,04,08,19,05,10.60
2011,04,08,19,06,10.60
2011,04,08,19,07,10.60
2011,04,08,19,08,10.60
2011,04,08,19,09,10.70
2011,04,08,19,11,10.70
2011,04,08,19,12,10.70
2011,04,08,19,13,10.70
2011,04,08,19,15,10.70
2011,04,08,19,16,10.70
2011,04,08,19,17,10.70
2011,04,08,19,18,10.80
2011,04,08,19,20,10.80
2011,04,08,19,21,10.80
2011,04,08,19,22,10.80
2011,04,08,19,23,10.90
2011,04,08,19,24,10.90
2011,04,08,19,25,10.90
2011,04,08,19,26,10.80
2011,04,08,19,27,10.80
2011,04,08,19,28,10.80
2011,04,08,19,29,10.80
2011,04,08,19,31,10.70
2011,04,08,19,32,10.70
2011,04,08,19,33,10.60
2011,04,08,19,34,10.60
2011,04,08,19,35,10.60
2011,04,08,19,36,10.50
2011,04,08,19,37,10.50
2011,04,08,19,38,10.40
2011,04,08,19,40,10.40
2011,04,08,19,41,10.40
2011,04,08,19,42,10.40
2011,04,08,19,43,10.30
2011,04,08,19,44,10.30
2011,04,08,19,45,10.30
2011,04,08,19,46,10.20
2011,04,08,19,47,10.20
2011,04,08,19,48,10.20
2011,04,08,19,49,10.20
2011,04,08,19,50,10.10
2011,04,08,19,51,10.10
2011,04,08,19,52,10.10
2011,04,08,19,53,10.10
2011,04,08,19,54,10.10
2011,04,08,19,55,10.00
2011,04,08,19,56,10.00
2011,04,08,19,57,10.00
2011,04,08,19,58,10.00
2011,04,08,19,59,10.00
2011,04,08,20,00,10.00
2011,04,08,20,01,9.90
2011,04,08,20,02,9.90
2011,04,08,20,04,9.90
2011,04,08,20,05,9.90
2011,04,08,20,06,9.90
2011,04,08,20,07,9.90
2011,04,08,20,09,9.90
2011,04,08,20,10,9.80
2011,04,08,20,11,9.80
2011,04,08,20,12,9.70
2011,04,08,20,14,9.70
2011,04,08,20,15,9.70
2011,04,08,20,16,9.60
2011,04,08,20,18,9.60
2011,04,08,20,19,9.60
2011,04,08,20,20,9.60
2011,04,08,20,21,9.50
2011,04,08,20,22,9.50
2011,04,08,20,23,9.40
2011,04,08,20,24,9.40
2011,04,08,20,25,9.40
2011,04,08,20,26,9.40
2011,04,08,20,27,9.40
2011,04,08,20,28,9.30